[[{"header":{"parameterUnit":"m.s-1","parameterCategory":1,"la1":30.2991,"la2":30.254,"lo1":-89.0895,"lo2":-89.0444,"dy":0.0017,"dx":0.0017,"nx":28,"ny":28,"refTime":"2025-02-26T09:00:00:Z","depth":0,"parameterNumber":2,"parameterNumberName":"U-component_of_WINDS"},"data":[0,0,0,0,0,0,0,0,0,0,0,0,0,0,0,0,0,0,0,0,0,0,0,0,0,0,0,0,0,0,0,0,0,0,0,0,0,0,0,0,0,0,0,0,0,0,0,0,0,0,0,0,0,0,0,0,0,0,-0.6354,-0.6354,0,-0.6321,-0.6321,-0.6321,-0.6298,-0.6297,-0.6297,-0.6297,-0.6261,-0.626,-0.6259,0,0,0,0,0,0,0,0,0,0,0,0,0,-0.6396,-0.6395,-0.6354,-0.6354,-0.6354,-0.6321,-0.6321,-0.632,-0.6298,-0.6297,-0.6297,-0.6297,-0.6261,-0.626,-0.6259,0,0,0,0,0,0,0,0,0,0,0,0,0,-0.6372,-0.6395,-0.6354,-0.6338,-0.6337,-0.6321,-0.6321,-0.632,-0.6298,-0.6297,-0.6297,-0.6297,-0.6261,-0.626,-0.6259,-0.6257,0,0,-0.6255,-0.6255,0,0,0,0,0,0,0,0,-0.6373,-0.637,-0.6341,-0.6339,-0.6337,-0.6313,-0.6322,-0.6299,-0.6298,-0.6312,-0.6297,-0.6297,-0.6278,-0.6276,-0.627,-0.6255,-0.6253,-0.6255,-0.6254,-0.6254,-0.6254,0,0,0,0,0,0,0,-0.6375,-0.6371,-0.6341,-0.6341,-0.6338,-0.6332,-0.6328,-0.6318,-0.6297,-0.6311,-0.6309,-0.6306,-0.6277,-0.6271,-0.6269,-0.6253,-0.6255,-0.6254,-0.6253,-0.6253,-0.6234,-0.6234,0,0,0,0,0,0,-0.6379,-0.6373,-0.6342,-0.634,-0.6355,-0.6332,-0.6327,-0.6321,-0.6297,-0.6293,-0.6306,-0.6305,-0.6273,-0.627,-0.6268,-0.6263,-0.6254,-0.6253,-0.6252,-0.6234,-0.6234,-0.6234,0,0,0,0,0,0,-0.638,-0.6377,-0.6344,-0.6356,-0.6351,-0.6331,-0.6324,-0.6321,-0.6315,-0.6293,-0.6289,-0.6304,-0.6273,-0.6269,-0.626,-0.6261,-0.6252,-0.6251,-0.6233,-0.6234,-0.6234,-0.6253,0,0,0,0,0,0,-0.6382,-0.6377,-0.6376,-0.6356,-0.6351,-0.6337,-0.6325,-0.632,-0.6313,-0.6311,-0.629,-0.6287,-0.6273,-0.6262,-0.6258,-0.6259,-0.625,-0.6233,-0.6233,-0.6234,-0.6253,-0.6254,-0.6256,0,0,0,0,0,-0.6383,-0.6383,-0.6376,-0.6373,-0.635,-0.6337,-0.6334,-0.6318,-0.6313,-0.6312,-0.6298,-0.6287,-0.6262,-0.6261,-0.6257,-0.6258,-0.6233,-0.6233,-0.6234,-0.6252,-0.6254,-0.6256,0,0,0,0,0,0,-0.6402,-0.638,-0.6373,-0.6366,-0.6354,-0.6333,-0.6331,-0.6321,-0.631,-0.6308,-0.6289,-0.6285,-0.6277,-0.6266,-0.6265,-0.6254,-0.6246,-0.6246,-0.6261,-0.6263,-0.6265,-0.6267,-0.6249,0,0,0,0,0,-0.6406,-0.6398,-0.6379,-0.6375,-0.6369,-0.6351,-0.6345,-0.6335,-0.6321,-0.6315,-0.6301,-0.6287,-0.6276,-0.6269,-0.6258,-0.6251,-0.6246,-0.625,-0.6252,-0.6253,-0.6253,-0.6249,-0.625,-0.6236,-0.6236,-0.6236,0,0,-0.6413,-0.64,-0.6396,-0.6378,-0.6367,-0.6359,-0.6347,-0.6339,-0.6332,-0.6313,-0.6303,-0.6293,-0.6276,-0.6268,-0.6264,-0.6259,-0.6256,-0.6254,-0.6255,-0.6254,-0.6249,-0.6251,-0.6252,-0.6236,-0.6236,-0.6236,0,0,-0.6422,-0.6411,-0.6407,-0.6396,-0.6381,-0.6369,-0.6368,-0.6349,-0.6342,-0.6332,-0.6318,-0.6309,-0.6291,-0.628,-0.6272,-0.6277,-0.6266,-0.6274,-0.6282,-0.6279,-0.628,-0.628,-0.6282,-0.6283,-0.6274,-0.6274,-0.6274,0,-0.6432,-0.642,-0.6405,-0.6398,-0.639,-0.6375,-0.6369,-0.636,-0.6341,-0.6336,-0.6331,-0.6308,-0.6296,-0.6285,-0.6287,-0.6281,-0.6278,-0.6276,-0.6281,-0.6282,-0.6282,-0.6283,-0.6284,-0.6275,-0.6275,-0.6275,-0.6275,0,-0.6433,-0.6425,-0.6423,-0.6406,-0.6399,-0.6393,-0.6376,-0.637,-0.6361,-0.635,-0.634,-0.6325,-0.631,-0.6307,-0.6297,-0.6295,-0.6292,-0.6285,-0.6276,-0.6285,-0.6285,-0.6286,-0.6276,-0.6276,-0.6276,-0.6276,0,0,-0.6452,-0.6428,-0.6427,-0.642,-0.6402,-0.6395,-0.6388,-0.6375,-0.637,-0.6357,-0.6351,-0.6336,-0.6329,-0.632,-0.6309,-0.6305,-0.631,-0.6298,-0.6297,-0.63,-0.6306,-0.6311,-0.6312,-0.6304,-0.6304,-0.6304,-0.6307,0,-0.6457,-0.6444,-0.6432,-0.6423,-0.6415,-0.6401,-0.6395,-0.6383,-0.6372,-0.6364,-0.6352,-0.6341,-0.6333,-0.6328,-0.6324,-0.6311,-0.6311,-0.631,-0.6296,-0.6296,-0.63,-0.6313,-0.6318,-0.6322,-0.6307,-0.6308,-0.6308,0,-0.6461,-0.6451,-0.6442,-0.6425,-0.6421,-0.6416,-0.6403,-0.6395,-0.6381,-0.6374,-0.6365,-0.6353,-0.6345,-0.6338,-0.6326,-0.6325,-0.6319,-0.6312,-0.6312,-0.6309,-0.6301,-0.6309,-0.6323,-0.6323,-0.6308,-0.6308,-0.6308,0,-0.6475,-0.6458,-0.6451,-0.6445,-0.6426,-0.6422,-0.6414,-0.64,-0.6393,-0.6381,-0.6376,-0.6364,-0.6357,-0.6347,-0.6332,-0.6329,-0.6321,-0.6313,-0.6314,-0.6315,-0.6312,-0.6312,-0.6324,-0.631,-0.631,-0.631,-0.631,0,-0.6481,-0.6476,-0.6457,-0.6453,-0.6447,-0.6432,-0.6426,-0.6416,-0.6404,-0.6397,-0.6384,-0.6377,-0.6358,-0.6349,-0.6338,-0.6329,-0.6326,-0.6319,-0.6316,-0.632,-0.6321,-0.6315,-0.6314,-0.631,-0.631,-0.631,-0.631,0,-0.6495,-0.6482,-0.6473,-0.6456,-0.6451,-0.6448,-0.6432,-0.6427,-0.6417,-0.6408,-0.6405,-0.6387,-0.6376,-0.6361,-0.6345,-0.6337,-0.633,-0.6325,-0.6335,-0.6333,-0.6334,-0.6334,-0.6342,-0.6342,-0.6328,-0.6328,-0.6328,0,-0.65,-0.6496,-0.6478,-0.6473,-0.6465,-0.6457,-0.645,-0.6436,-0.6429,-0.6413,-0.641,-0.6398,-0.6387,-0.637,-0.6356,-0.6343,-0.6338,-0.6341,-0.6336,-0.634,-0.6337,-0.6337,-0.6336,-0.6342,-0.6343,-0.6343,-0.6343,0,-0.6509,-0.6503,-0.6494,-0.6483,-0.6476,-0.6466,-0.6455,-0.6452,-0.6435,-0.6428,-0.6417,-0.6409,-0.6393,-0.6381,-0.6367,-0.6357,-0.6347,-0.6345,-0.6345,-0.6348,-0.6353,-0.635,-0.6338,-0.6345,-0.6345,-0.6344,-0.6344,-0.6344,-0.6518,-0.6514,-0.6501,-0.6492,-0.6483,-0.6473,-0.6468,-0.6457,-0.6448,-0.6434,-0.6426,-0.6415,-0.6402,-0.6382,-0.6373,-0.6364,-0.636,-0.6359,-0.6358,-0.6358,-0.6359,-0.6356,-0.6361,-0.6361,-0.6361,-0.6361,-0.6361,0,-0.6526,-0.6518,-0.6509,-0.6496,-0.6488,-0.6481,-0.6469,-0.6463,-0.6454,-0.6442,-0.6433,-0.642,-0.6409,-0.6394,-0.6381,-0.6377,-0.6372,-0.6374,-0.6374,-0.6371,-0.6364,-0.6366,-0.6378,-0.6378,-0.6378,-0.6378,-0.6378,-0.6378,-0.6529,-0.6522,-0.6515,-0.6503,-0.6494,-0.6484,-0.6478,-0.6469,-0.646,-0.6447,-0.6438,-0.6429,-0.6416,-0.6402,-0.6391,-0.6387,-0.6383,-0.6386,-0.638,-0.6374,-0.6372,-0.637,-0.6372,-0.6385,-0.6386,-0.6388,-0.6388,-0.6388]},{"header":{"parameterUnit":"m.s-1","parameterCategory":1,"la1":30.2991,"la2":30.254,"lo1":-89.0895,"lo2":-89.0444,"dy":0.0017,"dx":0.0017,"nx":28,"ny":28,"refTime":"2025-02-26T09:00:00:Z","depth":0,"parameterNumber":3,"parameterNumberName":"V-component_of_WINDS"},"data":[0,0,0,0,0,0,0,0,0,0,0,0,0,0,0,0,0,0,0,0,0,0,0,0,0,0,0,0,0,0,0,0,0,0,0,0,0,0,0,0,0,0,0,0,0,0,0,0,0,0,0,0,0,0,0,0,0,0,0.1433,0.1433,0,0.1431,0.1431,0.1431,0.1421,0.1421,0.142,0.142,0.1418,0.1419,0.1419,0,0,0,0,0,0,0,0,0,0,0,0,0,0.143,0.143,0.1433,0.1433,0.1433,0.1431,0.1431,0.1431,0.1421,0.1421,0.142,0.142,0.1418,0.1419,0.1419,0,0,0,0,0,0,0,0,0,0,0,0,0,0.143,0.143,0.1433,0.1427,0.1427,0.1431,0.1431,0.1431,0.1421,0.1421,0.142,0.142,0.1418,0.1419,0.1419,0.1427,0,0,0.142,0.142,0,0,0,0,0,0,0,0,0.143,0.143,0.1428,0.1428,0.1427,0.1426,0.1429,0.1429,0.1421,0.1423,0.142,0.142,0.1421,0.1421,0.1422,0.1427,0.1427,0.142,0.142,0.142,0.142,0,0,0,0,0,0,0,0.143,0.143,0.1432,0.1428,0.1428,0.1426,0.1425,0.1429,0.1424,0.1423,0.1422,0.1422,0.1421,0.1421,0.1421,0.1427,0.142,0.142,0.142,0.142,0.1442,0.1442,0,0,0,0,0,0,0.143,0.143,0.1432,0.1432,0.1428,0.1426,0.1426,0.1427,0.1424,0.1423,0.1423,0.1422,0.1421,0.1421,0.1421,0.1432,0.142,0.142,0.142,0.1441,0.1442,0.1442,0,0,0,0,0,0,0.143,0.143,0.1432,0.1431,0.1431,0.1427,0.1428,0.1427,0.1427,0.1424,0.1423,0.1424,0.1421,0.1421,0.1426,0.1432,0.142,0.142,0.1441,0.1441,0.1442,0.1453,0,0,0,0,0,0,0.143,0.143,0.1433,0.1431,0.1431,0.1436,0.1428,0.1427,0.1428,0.1427,0.1425,0.1424,0.1421,0.1426,0.1427,0.1432,0.1421,0.144,0.1441,0.1442,0.1452,0.1454,0.1456,0,0,0,0,0,0.143,0.1436,0.1433,0.1434,0.1434,0.1437,0.1437,0.1432,0.1428,0.1431,0.1429,0.1424,0.1431,0.1427,0.1427,0.1433,0.144,0.1441,0.1442,0.1452,0.1454,0.1456,0,0,0,0,0,0,0.1439,0.1436,0.1432,0.1438,0.1438,0.1435,0.1439,0.1435,0.1436,0.1435,0.143,0.1429,0.1436,0.1435,0.143,0.1442,0.1435,0.1436,0.1442,0.1444,0.1446,0.1446,0.1421,0,0,0,0,0,0.1441,0.1444,0.1441,0.1446,0.1446,0.1443,0.1443,0.144,0.144,0.144,0.1438,0.1438,0.1441,0.1443,0.1444,0.1452,0.1453,0.1457,0.1458,0.146,0.1461,0.1467,0.1469,0.1445,0.1445,0.1445,0,0,0.1447,0.1445,0.1447,0.1448,0.1447,0.145,0.1442,0.1446,0.1448,0.144,0.1446,0.1445,0.1445,0.1452,0.1455,0.1451,0.1468,0.1461,0.1462,0.1463,0.1468,0.147,0.1472,0.1446,0.1446,0.1446,0,0,0.1458,0.1457,0.1462,0.1462,0.1461,0.1459,0.146,0.1459,0.1458,0.1463,0.1458,0.1461,0.1465,0.1466,0.1467,0.148,0.1476,0.1481,0.149,0.1496,0.1498,0.1499,0.1505,0.1508,0.1482,0.1482,0.1482,0,0.1465,0.1469,0.1464,0.1469,0.147,0.1464,0.1469,0.1469,0.147,0.1471,0.1467,0.1473,0.1472,0.148,0.1484,0.1484,0.1486,0.1481,0.1498,0.1499,0.1501,0.1507,0.1509,0.1483,0.1483,0.1483,0.1483,0,0.1478,0.1481,0.1485,0.1486,0.1487,0.1492,0.1489,0.1492,0.1489,0.1488,0.1494,0.1493,0.1496,0.1497,0.1494,0.1505,0.1503,0.1499,0.1491,0.1504,0.1509,0.1511,0.1484,0.1484,0.1484,0.1483,0,0,0.1493,0.1493,0.1495,0.1496,0.1496,0.1499,0.1504,0.1507,0.1509,0.151,0.1515,0.1519,0.1516,0.1517,0.1514,0.1519,0.1532,0.1514,0.1514,0.1518,0.1545,0.1549,0.1552,0.1529,0.1529,0.153,0.1546,0,0.1505,0.1513,0.1511,0.1519,0.1523,0.1518,0.1523,0.1524,0.1523,0.1527,0.1526,0.153,0.1524,0.1525,0.1529,0.1529,0.1537,0.1528,0.1534,0.1534,0.1535,0.1554,0.1558,0.1573,0.1548,0.1548,0.1548,0,0.1519,0.1521,0.1531,0.1532,0.1533,0.1538,0.1541,0.1544,0.1546,0.1545,0.1547,0.1544,0.155,0.1543,0.1552,0.1546,0.1549,0.1549,0.1549,0.155,0.1542,0.1556,0.1577,0.158,0.1551,0.1551,0.1551,0,0.1531,0.1536,0.1543,0.1544,0.1545,0.1549,0.1549,0.1551,0.1553,0.1556,0.1558,0.1561,0.1564,0.1567,0.1565,0.156,0.1575,0.1567,0.1575,0.1576,0.1579,0.1579,0.1602,0.158,0.158,0.158,0.158,0,0.1544,0.155,0.1548,0.1553,0.156,0.1557,0.1565,0.1565,0.1567,0.1572,0.1567,0.1572,0.157,0.1574,0.1573,0.1582,0.1582,0.1583,0.1582,0.1583,0.1584,0.1585,0.1584,0.158,0.158,0.158,0.158,0,0.1558,0.1557,0.1564,0.1565,0.1566,0.1571,0.1573,0.1577,0.1577,0.1583,0.1584,0.1584,0.159,0.1589,0.1594,0.1594,0.1605,0.1603,0.1604,0.1604,0.1613,0.1612,0.1638,0.1642,0.1617,0.1617,0.1617,0,0.1567,0.1572,0.1574,0.1577,0.1578,0.1583,0.1586,0.1584,0.1587,0.1591,0.1595,0.16,0.1605,0.1614,0.1615,0.162,0.1618,0.1627,0.1619,0.1621,0.162,0.162,0.1621,0.1629,0.1629,0.1629,0.1629,0,0.1583,0.1583,0.1587,0.1591,0.1595,0.1598,0.1601,0.1604,0.1603,0.1607,0.1613,0.1616,0.1623,0.1629,0.1634,0.1636,0.1633,0.1632,0.1634,0.1636,0.1637,0.1637,0.1609,0.1631,0.1631,0.1631,0.1631,0.1631,0.1595,0.16,0.1602,0.1608,0.161,0.1614,0.1618,0.1619,0.1624,0.163,0.1629,0.1636,0.1639,0.1646,0.1648,0.1654,0.1651,0.1654,0.1655,0.1656,0.1657,0.1635,0.1655,0.1655,0.1655,0.1655,0.1655,0,0.1612,0.1614,0.1618,0.1623,0.1628,0.1625,0.1629,0.1633,0.164,0.1643,0.1648,0.1656,0.1662,0.1664,0.167,0.1675,0.1674,0.1676,0.1676,0.1677,0.1659,0.1657,0.1677,0.1677,0.1677,0.1677,0.1677,0.1677,0.1621,0.1629,0.1629,0.164,0.1642,0.1649,0.1651,0.1655,0.1658,0.1667,0.1672,0.1674,0.1677,0.1684,0.169,0.169,0.1693,0.1696,0.1697,0.168,0.1678,0.1676,0.1674,0.1697,0.1697,0.1714,0.1714,0.1714]}]]